Wind_Speed
7 11 15 15 12 14 15 8 14 14 24 18 17 11 11 8 7 6 21 19 18 19 21 20 18 16 15 14 14 14 15 14 15 15 16 13 13 14 11 11 10 10 14 15 16 17 19 22 22
13 18 19 22 21 19 13 12 15 14 13 25 13 10 7 4 1 22 21 20 19 18 20 18 18 16 15 12 13 13 14 13 12 14 13 11 11 12 10 10 11 10 13 15 16 18 17 20 21
9 11 10 13 19 14 12 13 11 13 16 15 12 10 14 21 19 18 19 20 21 19 20 18 17 14 14 13 11 12 11 12 10 11 10 8 8 10 8 9 10 10 11 13 15 19 18 20 19
11 12 15 19 20 18 12 11 9 11 12 14 9 12 16 22 21 15 17 19 20 19 17 19 17 14 13 12 10 9 8 8 7 8 7 6 7 8 8 9 8 9 10 10 11 16 19 17 17
9 12 15 15 16 17 14 10 9 7 14 18 12 17 21 24 20 18 18 18 18 16 16 16 14 14 12 11 8 7 6 5 5 6 5 6 7 7 7 8 6 6 8 9 8 10 15 17 17
8 11 14 16 14 12 13 10 11 12 13 19 12 22 23 24 20 19 16 16 17 13 13 13 13 12 11 10 8 6 5 4 3 4 5 6 7 6 7 8 6 5 5 9 7 8 10 13 14
10 10 12 12 12 11 11 11 9 12 13 17 21 23 23 24 21 19 17 15 14 14 13 12 11 11 10 10 8 6 5 4 3 5 5 7 8 6 8 7 5 5 5 7 7 7 9 10 11
9 9 9 7 9 10 9 11 10 9 15 18 18 18 15 18 18 16 15 15 15 15 15 14 12 11 10 9 9 7 5 4 4 6 4 4 7 8 7 7 5 6 5 6 6 7 8 8 10
8 8 8 9 8 8 9 10 12 9 10 16 16 8 9 12 17 13 12 15 14 13 14 13 11 10 10 9 8 6 6 5 4 5 3 3 3 3 5 6 4 5 5 5 5 6 8 7 8
9 6 11 13 12 9 8 8 15 11 7 9 13 13 12 9 13 12 9 10 12 12 11 11 11 10 10 8 7 6 5 6 5 4 3 3 2 6 2 4 4 4 4 5 7 5 9 9 7
10 12 12 11 11 10 11 10 8 12 14 11 5 6 13 11 12 13 13 12 11 10 10 10 10 9 8 6 6 6 7 6 6 6 5 7 4 5 4 5 4 3 3 3 6 6 7 10 11
6 5 7 10 10 8 10 9 9 6 8 11 10 5 8 11 10 12 11 10 9 10 9 9 10 9 6 5 5 7 8 6 5 5 6 1 6 5 5 4 4 4 3 3 5 7 6 9 10
6 5 5 6 5 6 6 5 3 5 6 8 8 8 11 13 16 16 14 12 12 9 9 7 8 5 5 6 6 7 7 5 6 5 4 3 5 6 5 2 3 4 5 3 4 7 8 9 8
7 6 2 2 1 2 5 6 4 4 4 5 5 8 14 13 12 15 16 15 12 9 8 6 5 4 5 6 7 5 5 6 5 6 5 5 6 6 3 3 5 6 4 2 3 5 7 9 10
7 5 4 1 4 5 5 8 6 5 7 3 1 7 15 18 15 17 15 16 15 12 8 6 4 5 5 6 7 6 7 8 6 5 4 4 6 5 6 4 4 4 6 5 3 4 6 8 8
8 9 5 3 3 7 6 5 6 3 2 1 1 5 15 17 18 16 15 14 13 13 8 5 4 5 5 4 4 8 10 8 4 5 5 5 5 5 4 4 2 2 3 1 1 3 1 5 9
13 8 11 7 7 7 8 7 6 4 1 1 2 6 14 22 20 17 14 13 11 9 8 3 2 4 4 5 6 8 7 9 6 7 7 2 4 6 5 2 6 4 5 1 3 3 4 4 7
9 15 12 13 11 10 10 12 10 9 4 0 1 5 11 18 17 14 12 10 9 7 4 3 1 5 3 3 4 5 3 5 4 9 5 4 4 3 3 3 4 4 2 1 4 3 2 3 6
7 11 8 9 14 15 17 17 14 9 10 8 5 5 8 10 16 14 12 8 7 6 3 1 1 3 4 3 3 2 3 7 6 5 7 4 4 3 1 3 2 2 3 3 0 2 1 6 12
7 11 12 10 13 16 15 19 18 20 12 8 4 5 4 12 12 13 11 9 4 4 4 5 2 4 4 3 4 2 2 2 4 5 4 3 4 4 1 1 2 2 2 2 3 3 4 6 9
11 11 13 12 6 16 15 20 21 22 20 15 14 9 9 9 8 10 10 10 5 7 10 7 3 4 4 3 3 3 1 3 4 5 2 4 2 2 1 1 1 1 2 1 2 4 3 3 5
16 5 9 11 13 7 12 13 22 18 21 23 19 18 13 11 10 12 11 8 7 7 12 11 7 4 4 4 3 3 4 3 5 5 5 5 1 3 1 2 1 1 2 1 1 1 2 2 1
16 11 12 15 16 15 17 7 13 18 22 24 21 19 16 15 11 11 12 16 12 12 12 12 9 5 3 4 5 5 5 6 4 2 6 9 5 1 2 2 1 2 3 3 2 3 2 2 0
8 10 12 18 16 9 25 12 25 14 13 18 20 17 19 18 16 15 17 15 14 12 9 9 8 3 3 2 5 6 7 8 4 3 6 7 5 2 1 1 3 4 5 6 4 1 3 3 3
11 9 3 2 2 9 11 10 26 21 22 19 16 17 18 21 21 19 22 20 17 14 11 8 8 7 4 1 4 5 5 6 4 4 6 4 3 4 4 3 2 4 6 6 5 2 3 4 4
14 18 12 7 4 8 11 11 20 19 21 22 14 15 23 26 23 22 22 18 15 13 12 8 6 7 4 2 2 2 3 2 3 5 6 4 2 6 3 3 3 1 2 4 5 5 3 2 6
16 22 18 5 7 2 7 12 22 23 17 19 13 17 26 27 23 20 21 21 17 15 11 8 5 6 4 3 2 1 2 3 2 5 4 4 4 5 4 3 2 1 1 2 3 3 3 2 4
12 16 13 9 3 5 7 13 16 24 21 18 15 13 19 24 24 21 21 23 21 15 14 14 11 8 5 3 2 1 1 2 4 4 4 4 6 6 7 7 5 3 4 4 5 6 7 9 10
14 14 14 13 9 8 4 19 26 26 15 19 15 11 17 19 26 25 22 23 24 23 18 16 15 15 16 12 8 7 5 4 6 5 4 4 4 7 9 8 6 6 6 8 9 9 11 13 15
10 9 12 15 8 11 9 21 13 13 17 17 11 12 15 15 21 27 25 21 21 20 23 21 20 24 22 16 11 9 8 6 3 5 4 4 6 7 8 8 8 9 12 12 11 12 15 16 24
Wind_Direction
60 71 66 64 79 85 84 90 113 121 121 136 135 105 121 119 106 123 134 128 131 137 132 128 131 125 117 115 108 99 97 101 102 100 89 78 73 71 64 66 69 74 76 74 70 85 99 117 124
65 78 80 79 86 85 89 107 108 122 143 145 132 123 129 143 111 141 134 130 132 135 126 128 129 126 122 116 106 102 100 98 95 94 90 88 85 80 68 59 74 83 81 83 75 86 107 120 127
91 77 72 72 77 81 113 121 119 117 136 148 127 131 106 125 127 135 131 136 132 136 129 131 130 126 126 118 107 104 98 99 96 90 91 85 86 85 73 68 70 82 88 89 84 87 110 127 128
90 91 74 93 86 76 81 117 126 142 150 166 145 129 121 124 116 121 142 133 133 132 136 136 136 129 132 123 117 113 107 103 102 92 87 85 74 70 73 69 69 77 98 86 97 97 105 131 136
68 95 88 83 91 88 80 93 88 121 159 161 153 140 131 130 138 137 135 130 129 129 133 133 136 136 136 127 129 123 115 108 103 93 76 74 69 63 65 69 73 81 93 91 101 102 99 120 148
77 97 93 86 106 100 86 87 85 84 134 152 152 144 133 130 135 130 130 129 122 127 129 133 137 142 134 134 141 131 131 128 117 93 79 72 69 62 67 67 70 81 96 104 114 120 112 105 127
73 82 87 85 100 103 97 86 97 98 106 154 151 149 137 139 137 137 134 130 133 139 136 135 143 141 139 147 146 145 151 142 113 80 66 72 64 58 76 76 72 77 104 110 126 143 134 125 113
83 88 94 83 88 103 115 93 121 115 112 136 153 156 141 135 132 135 134 143 149 148 147 146 148 144 148 154 149 158 154 137 117 96 85 86 78 63 74 78 76 82 88 111 125 148 152 146 126
64 75 82 56 68 95 121 113 116 130 125 163 166 194 186 151 144 142 155 158 154 154 154 147 145 149 149 153 148 157 146 131 116 109 104 88 71 64 66 83 94 88 95 101 107 148 154 157 152
85 86 68 62 69 70 116 110 71 91 105 149 186 219 207 177 145 143 149 154 148 148 149 139 144 145 147 147 149 151 139 142 136 129 89 68 45 49 109 77 118 97 83 107 106 127 163 165 158
88 81 84 80 82 83 84 114 78 71 65 78 75 195 188 182 154 151 154 159 152 150 143 144 145 144 145 150 161 155 151 141 131 115 115 84 71 73 85 92 104 109 131 135 127 125 152 171 166
125 102 101 61 60 66 83 89 94 91 54 59 95 110 179 171 163 151 155 150 153 151 148 147 149 145 147 161 171 165 149 146 141 110 124 109 75 69 64 100 85 99 113 165 158 148 150 164 178
130 121 94 75 51 33 20 49 79 64 23 33 62 135 171 167 156 153 147 149 154 134 146 133 150 149 155 158 158 160 156 157 158 117 100 81 82 76 60 69 32 58 98 76 177 167 167 173 185
139 162 132 90 273 335 327 343 356 356 326 8 42 142 169 175 162 144 127 113 124 142 148 149 159 162 149 158 156 148 155 141 130 121 126 105 94 91 95 72 11 19 37 36 141 173 186 187 192
165 147 145 176 243 268 290 312 339 326 295 284 25 157 173 176 160 135 124 106 91 94 122 157 176 177 170 165 168 144 132 144 146 140 124 103 87 91 80 46 27 71 65 102 99 167 181 209 208
173 189 202 202 213 234 248 292 320 333 28 101 218 175 178 174 156 149 132 111 91 72 83 99 149 182 180 179 164 142 152 163 155 164 140 125 108 108 83 38 75 59 358 259 328 157 142 223 234
205 219 220 215 232 249 244 293 342 279 149 133 175 190 177 170 169 155 137 122 112 90 70 86 152 167 188 184 158 166 174 174 200 191 140 127 110 76 68 64 73 50 32 349 237 213 268 274 274
227 232 242 234 228 250 260 293 299 307 266 223 219 189 191 188 180 162 142 123 124 125 87 29 141 163 158 201 149 180 191 169 193 204 143 146 155 94 97 133 142 64 89 85 220 249 37 15 325
281 272 291 252 246 240 256 273 285 299 264 228 218 205 194 180 171 161 154 164 160 151 142 198 206 151 136 137 147 136 178 196 209 169 162 162 157 128 306 130 121 83 84 48 47 225 42 21 11
279 289 283 272 250 236 259 268 274 273 289 266 238 236 208 183 180 164 165 174 201 203 159 192 216 175 138 146 126 121 172 201 199 192 198 188 170 141 168 85 95 115 100 39 3 2 320 37 37
260 274 278 255 265 216 256 270 274 278 267 252 230 200 217 232 187 172 165 143 179 193 183 163 155 165 162 169 141 129 208 246 221 216 206 156 185 183 197 16 353 318 49 107 20 27 5 335 56
256 280 264 253 278 246 270 286 279 281 279 271 251 223 209 198 187 173 171 170 185 190 178 158 136 149 187 207 170 169 223 260 210 217 206 183 219 256 238 280 284 18 30 33 340 353 359 358 143
251 269 279 251 264 252 266 259 290 294 278 273 257 238 217 193 191 176 169 146 144 157 144 135 126 113 153 196 191 204 222 231 220 202 212 225 222 248 265 290 322 25 29 32 350 288 282 307 239
242 256 247 241 259 270 267 251 289 291 312 316 275 258 230 197 182 170 151 157 172 183 178 169 162 148 81 183 191 201 221 232 215 220 223 192 199 148 206 100 35 47 34 30 12 295 271 289 307
222 229 136 271 273 234 292 263 261 305 306 314 278 275 229 199 181 181 169 177 173 167 156 169 164 148 89 176 199 196 222 239 224 222 224 201 171 185 177 153 62 39 35 33 37 25 250 248 268
235 225 175 180 211 238 240 247 266 309 321 318 300 210 196 199 177 175 180 184 174 166 159 155 161 136 138 87 210 234 243 233 219 221 220 206 160 199 208 178 147 77 20 35 29 34 42 247 248
218 208 225 214 213 198 211 237 266 282 308 317 305 204 191 194 185 171 177 180 175 170 164 151 127 140 145 190 223 320 335 316 252 233 222 223 225 219 227 202 193 180 330 351 338 350 344 331 262
209 224 215 226 134 263 235 247 264 279 298 298 312 221 202 194 182 174 172 176 178 171 177 188 169 179 163 215 206 222 262 296 266 238 211 208 221 229 225 210 212 247 282 303 305 288 301 310 314
204 215 218 232 225 194 241 258 263 271 293 295 292 246 205 200 187 186 183 180 184 188 203 210 206 198 184 194 220 252 260 284 266 208 190 195 209 210 207 216 240 251 263 259 269 288 304 306 308
218 251 253 225 227 220 245 252 259 264 277 299 251 233 207 193 197 203 196 198 201 210 208 210 218 230 211 184 196 226 251 256 186 240 223 198 200 203 213 223 237 257 259 263 276 301 290 314 306
Height
3158 3156 3154 3154 3158 3157 3157 3162 3161 3162 3164 3168 3171 3172 3175 3177 3178 3183 3182 3184 3185 3187 3189 3192 3193 3195 3196 3198 3198 3199 3200 3201 3201 3203 3202 3203 3203 3203 3204 3203 3202 3203 3202 3201 3200 3199 3198 3201 3203
3161 3159 3159 3158 3160 3158 3162 3164 3165 3166 3167 3170 3172 3175 3176 3179 3179 3181 3184 3185 3187 3191 3192 3194 3197 3198 3199 3201 3201 3202 3203 3204 3204 3204 3205 3205 3205 3205 3205 3206 3204 3204 3204 3205 3204 3202 3203 3205 3207
3164 3163 3163 3162 3163 3163 3165 3166 3167 3169 3171 3173 3175 3178 3179 3179 3183 3186 3187 3187 3189 3193 3194 3196 3198 3201 3202 3203 3204 3205 3205 3206 3207 3207 3207 3207 3207 3207 3207 3207 3206 3206 3206 3207 3208 3207 3207 3209 3211
3165 3167 3166 3166 3166 3168 3169 3168 3169 3170 3173 3175 3178 3179 3182 3183 3187 3189 3189 3191 3192 3194 3196 3196 3199 3202 3203 3205 3206 3208 3208 3208 3209 3209 3210 3209 3209 3208 3209 3208 3208 3208 3209 3210 3211 3211 3210 3211 3213
3168 3168 3167 3168 3169 3171 3173 3172 3172 3172 3173 3176 3179 3181 3184 3187 3189 3191 3192 3193 3195 3197 3198 3199 3202 3203 3205 3207 3209 3210 3210 3211 3211 3211 3211 3211 3211 3210 3209 3209 3209 3210 3210 3210 3212 3212 3213 3213 3215
3170 3170 3170 3170 3172 3174 3175 3175 3175 3175 3175 3178 3181 3183 3187 3188 3190 3191 3194 3196 3197 3199 3201 3203 3205 3205 3207 3209 3211 3211 3212 3213 3213 3212 3213 3212 3213 3212 3211 3211 3211 3211 3212 3212 3213 3214 3215 3215 3217
3172 3172 3171 3172 3174 3176 3178 3178 3180 3180 3180 3182 3184 3185 3188 3189 3192 3194 3196 3198 3200 3202 3203 3205 3207 3207 3209 3210 3212 3212 3213 3213 3214 3214 3215 3214 3214 3214 3213 3213 3213 3212 3213 3214 3216 3216 3217 3217 3218
3173 3173 3172 3174 3176 3179 3180 3181 3182 3185 3185 3186 3188 3190 3190 3192 3193 3195 3198 3200 3202 3203 3204 3206 3208 3209 3211 3212 3213 3213 3213 3214 3214 3214 3215 3215 3215 3215 3215 3214 3214 3215 3214 3214 3217 3218 3219 3219 3219
3176 3176 3175 3176 3178 3180 3181 3182 3184 3186 3187 3189 3191 3192 3194 3195 3196 3198 3200 3201 3203 3205 3206 3208 3209 3211 3212 3213 3214 3214 3215 3215 3215 3215 3215 3216 3216 3216 3216 3215 3215 3215 3216 3215 3217 3219 3220 3221 3222
3178 3178 3178 3179 3180 3182 3183 3184 3186 3189 3189 3190 3191 3193 3195 3196 3199 3201 3202 3204 3205 3206 3208 3209 3211 3212 3213 3214 3215 3216 3216 3215 3215 3215 3216 3216 3216 3216 3216 3216 3216 3216 3217 3217 3217 3219 3221 3222 3223
3180 3180 3181 3182 3183 3183 3184 3184 3188 3189 3190 3190 3191 3192 3194 3197 3199 3202 3204 3206 3206 3208 3209 3211 3213 3213 3214 3215 3216 3217 3216 3216 3217 3217 3217 3217 3217 3216 3217 3217 3218 3217 3217 3218 3218 3219 3222 3223 3223
3182 3182 3183 3184 3184 3185 3186 3187 3189 3191 3192 3192 3192 3193 3195 3197 3200 3203 3206 3207 3209 3210 3211 3212 3214 3214 3214 3216 3217 3218 3217 3218 3219 3219 3218 3219 3217 3217 3217 3218 3219 3218 3218 3219 3220 3219 3221 3223 3225
3184 3184 3184 3185 3186 3186 3187 3189 3190 3191 3193 3194 3194 3195 3197 3199 3202 3204 3206 3207 3209 3210 3211 3213 3214 3215 3216 3216 3218 3218 3218 3218 3219 3220 3220 3220 3218 3218 3219 3219 3219 3219 3219 3220 3221 3221 3222 3223 3225
3185 3185 3186 3186 3186 3187 3188 3189 3190 3192 3193 3195 3197 3198 3200 3201 3203 3205 3206 3207 3209 3210 3212 3213 3215 3216 3217 3217 3217 3218 3219 3220 3221 3221 3221 3221 3220 3219 3219 3220 3220 3219 3220 3220 3221 3222 3223 3224 3226
3185 3186 3186 3186 3186 3187 3189 3190 3190 3191 3193 3194 3197 3198 3200 3202 3204 3206 3208 3208 3209 3211 3212 3214 3216 3217 3217 3217 3217 3219 3221 3221 3222 3221 3222 3221 3220 3220 3220 3221 3221 3220 3219 3220 3222 3223 3223 3225 3226
3187 3188 3188 3187 3189 3189 3192 3191 3191 3192 3192 3193 3195 3198 3200 3202 3205 3206 3207 3208 3209 3210 3212 3214 3216 3218 3218 3217 3219 3220 3221 3222 3222 3222 3221 3222 3221 3221 3222 3222 3222 3221 3221 3221 3222 3222 3222 3223 3223
3187 3187 3188 3189 3189 3190 3191 3190 3191 3193 3193 3193 3193 3195 3198 3201 3203 3205 3207 3208 3209 3211 3212 3215 3216 3218 3218 3219 3220 3221 3222 3221 3222 3222 3221 3222 3222 3222 3223 3223 3223 3222 3222 3222 3223 3223 3222 3222 3221
3186 3187 3188 3188 3190 3189 3190 3190 3191 3192 3193 3194 3195 3195 3197 3201 3203 3205 3206 3207 3208 3210 3212 3214 3215 3217 3218 3219 3220 3221 3221 3221 3221 3221 3223 3223 3223 3224 3224 3224 3225 3224 3224 3224 3224 3224 3223 3221 3219
3186 3187 3187 3187 3188 3189 3189 3188 3190 3191 3191 3191 3194 3196 3197 3199 3202 3202 3204 3206 3208 3210 3211 3214 3215 3216 3217 3219 3220 3220 3220 3221 3222 3222 3223 3223 3224 3224 3224 3224 3225 3226 3226 3225 3224 3224 3223 3222 3219
3185 3185 3184 3186 3186 3187 3187 3186 3187 3188 3190 3192 3193 3194 3195 3197 3197 3199 3201 3203 3206 3209 3211 3213 3215 3215 3216 3217 3220 3220 3220 3221 3222 3222 3222 3223 3223 3224 3225 3224 3225 3226 3226 3225 3225 3225 3224 3223 3222
3184 3184 3183 3185 3184 3184 3184 3182 3182 3183 3186 3190 3192 3191 3193 3195 3197 3197 3199 3201 3204 3206 3208 3211 3213 3213 3214 3216 3218 3219 3220 3221 3222 3222 3222 3223 3223 3224 3224 3225 3225 3226 3225 3225 3226 3226 3224 3224 3223
3182 3184 3184 3184 3185 3186 3185 3180 3178 3179 3181 3182 3187 3188 3191 3193 3194 3195 3198 3201 3204 3206 3207 3208 3210 3212 3213 3215 3217 3219 3220 3221 3221 3222 3223 3224 3224 3224 3224 3225 3226 3226 3225 3225 3225 3225 3225 3225 3225
3182 3183 3184 3183 3184 3184 3183 3184 3174 3176 3175 3176 3180 3184 3186 3188 3191 3193 3196 3199 3201 3205 3206 3208 3210 3211 3212 3214 3216 3217 3219 3221 3222 3222 3223 3224 3226 3225 3226 3226 3226 3225 3225 3225 3225 3225 3224 3224 3224
3179 3180 3182 3183 3183 3183 3179 3183 3170 3172 3173 3171 3174 3177 3182 3184 3188 3192 3195 3198 3201 3203 3205 3208 3209 3210 3211 3214 3215 3216 3218 3219 3221 3222 3222 3223 3225 3225 3226 3225 3226 3226 3225 3224 3224 3224 3224 3224 3225
3176 3177 3182 3186 3185 3180 3178 3179 3171 3170 3170 3168 3169 3172 3178 3182 3184 3189 3193 3196 3199 3201 3204 3207 3208 3209 3211 3213 3215 3216 3217 3219 3219 3221 3222 3222 3224 3225 3226 3225 3225 3225 3224 3225 3225 3224 3224 3225 3225
3171 3173 3174 3185 3184 3175 3177 3175 3169 3168 3168 3165 3164 3167 3172 3178 3181 3186 3191 3194 3197 3201 3203 3206 3208 3209 3212 3214 3216 3217 3218 3218 3219 3221 3222 3223 3224 3224 3225 3226 3225 3226 3225 3224 3225 3225 3224 3224 3224
3168 3170 3173 3173 3173 3175 3173 3171 3168 3168 3167 3166 3164 3166 3168 3173 3179 3183 3188 3193 3197 3199 3203 3207 3211 3212 3213 3215 3216 3217 3217 3219 3219 3220 3221 3222 3224 3224 3224 3224 3225 3226 3225 3225 3224 3224 3223 3222 3222
3165 3169 3171 3171 3175 3175 3169 3167 3166 3166 3167 3165 3164 3166 3168 3171 3177 3181 3186 3190 3193 3199 3202 3204 3207 3209 3212 3215 3216 3217 3216 3218 3219 3219 3220 3221 3223 3222 3223 3224 3224 3224 3224 3224 3222 3221 3222 3221 3221
3162 3163 3166 3168 3168 3168 3170 3161 3164 3163 3165 3163 3163 3164 3167 3169 3175 3179 3182 3188 3191 3194 3197 3202 3204 3206 3206 3208 3212 3216 3217 3217 3217 3218 3218 3219 3221 3221 3222 3222 3223 3223 3223 3221 3219 3220 3219 3218 3219
3157 3159 3161 3162 3164 3163 3161 3156 3161 3161 3161 3159 3160 3162 3165 3169 3174 3176 3180 3185 3189 3190 3191 3195 3199 3204 3206 3203 3207 3212 3215 3216 3215 3217 3217 3217 3218 3220 3220 3220 3220 3221 3218 3218 3219 3218 3216 3217 3217